Hourly Weather Agres

Today, 7 March, Sunday

Time Temperature Precipitation Wind Pressure Humidity
00:00 +8°C° 0 mm 2 mps 722 mmHg 92%
01:00 +8°C° 0.5 mm 2 mps 721 mmHg 93%
02:00 +8°C° 0.5 mm 2 mps 721 mmHg 93%
03:00 +8°C° 0.5 mm 3 mps 721 mmHg 94%
04:00 +8°C° 2 mm 2 mps 720 mmHg 94%
05:00 +8°C° 2 mm 2 mps 720 mmHg 94%
06:00 +9°C° 0 mm 2 mps 720 mmHg 95%
07:00 +9°C° 1 mm 3 mps 720 mmHg 95%
08:00 +9°C° 1 mm 3 mps 720 mmHg 95%
09:00 +9°C° 1 mm 3 mps 720 mmHg 95%
10:00 +9°C° 2.3 mm 3 mps 720 mmHg 94%
11:00 +9°C° 2.3 mm 3 mps 720 mmHg 92%
12:00 +9°C° 2.3 mm 3 mps 720 mmHg 91%
13:00 +9°C° 1.3 mm 3 mps 719 mmHg 91%
14:00 +9°C° 1.3 mm 3 mps 719 mmHg 91%
15:00 +9°C° 1.3 mm 3 mps 718 mmHg 91%
16:00 +9°C° 0.7 mm 3 mps 718 mmHg 92%
17:00 +8°C° 0.7 mm 2 mps 718 mmHg 93%
18:00 +8°C° 0.7 mm 2 mps 717 mmHg 94%
19:00 +8°C° 0.7 mm 2 mps 718 mmHg 94%
20:00 +8°C° 0.7 mm 2 mps 718 mmHg 95%
21:00 +8°C° 0.7 mm 2 mps 718 mmHg 95%
22:00 +8°C° 0.6 mm 2 mps 718 mmHg 95%
23:00 +8°C° 0.6 mm 2 mps 717 mmHg 95%

Tomorrow, 8 March, Monday

Time Temperature Precipitation Wind Pressure Humidity
00:00 +8°C° 0.6 mm 2 mps 717 mmHg 96%
01:00 +8°C° 0.2 mm 2 mps 717 mmHg 95%
02:00 +8°C° 0.2 mm 2 mps 717 mmHg 95%
03:00 +9°C° 0.2 mm 1 mps 716 mmHg 95%
04:00 +9°C° 0.1 mm 1 mps 716 mmHg 94%
05:00 +9°C° 0.1 mm 1 mps 716 mmHg 93%
06:00 +9°C° 0.1 mm 1 mps 716 mmHg 93%
07:00 +9°C° 0 mm 1 mps 717 mmHg 89%
08:00 +10°C° 0 mm 1 mps 717 mmHg 85%
09:00 +11°C° 0 mm 1 mps 717 mmHg 81%
10:00 +10°C° 0.2 mm 2 mps 717 mmHg 77%
11:00 +12°C° 0.2 mm 2 mps 717 mmHg 73%
12:00 +12°C° 0.2 mm 3 mps 717 mmHg 69%
13:00 +12°C° 0.5 mm 3 mps 717 mmHg 72%
14:00 +12°C° 0.5 mm 3 mps 717 mmHg 74%
15:00 +11°C° 0.5 mm 4 mps 716 mmHg 77%
16:00 +10°C° 0.2 mm 4 mps 716 mmHg 81%
17:00 +10°C° 0.2 mm 3 mps 717 mmHg 85%
18:00 +9°C° 0.2 mm 3 mps 717 mmHg 89%
19:00 +8°C° 0.2 mm 3 mps 717 mmHg 90%
20:00 +8°C° 0.2 mm 2 mps 718 mmHg 91%
21:00 +8°C° 0.2 mm 2 mps 718 mmHg 92%
22:00 +8°C° 0.3 mm 2 mps 718 mmHg 92%
23:00 +9°C° 0.3 mm 1 mps 718 mmHg 92%

Day after tomorrow, 9 March, Tuesday

Time Temperature Precipitation Wind Pressure Humidity
00:00 +9°C° 0.3 mm 1 mps 718 mmHg 91%
01:00 +9°C° 0.4 mm 1 mps 718 mmHg 92%
02:00 +9°C° 0.4 mm 1 mps 718 mmHg 92%
03:00 +8°C° 0.4 mm 1 mps 718 mmHg 93%
04:00 +8°C° 0.3 mm 1 mps 718 mmHg 93%
05:00 +8°C° 0.3 mm 1 mps 718 mmHg 92%
06:00 +8°C° 0.3 mm 1 mps 718 mmHg 92%
07:00 +9°C° 0.4 mm 1 mps 719 mmHg 88%
08:00 +9°C° 0.4 mm 1 mps 719 mmHg 85%
09:00 +10°C° 0.4 mm 1 mps 720 mmHg 81%
10:00 +11°C° 0.1 mm 1 mps 720 mmHg 76%
11:00 +11°C° 0.1 mm 1 mps 720 mmHg 71%
12:00 +12°C° 0.1 mm 1 mps 720 mmHg 66%
13:00 +13°C° 0.2 mm 1 mps 720 mmHg 65%
14:00 +13°C° 0.2 mm 2 mps 720 mmHg 64%
15:00 +13°C° 0.2 mm 2 mps 720 mmHg 62%
16:00 +12°C° 0.1 mm 2 mps 720 mmHg 68%
17:00 +10°C° 0.1 mm 2 mps 719 mmHg 73%
18:00 +10°C° 0.1 mm 2 mps 719 mmHg 78%
19:00 +10°C° 0 mm 1 mps 720 mmHg 81%
20:00 +9°C° 0 mm 1 mps 720 mmHg 84%
21:00 +8°C° 0 mm 1 mps 721 mmHg 88%
22:00 +8°C° 0 mm 1 mps 721 mmHg 88%
23:00 +8°C° 0 mm 1 mps 721 mmHg 89%

10 March, Wednesday

Time Temperature Precipitation Wind Pressure Humidity
00:00 +7°C° 0 mm 1 mps 721 mmHg 90%
01:00 +7°C° 0 mm 1 mps 721 mmHg 89%
02:00 +7°C° 0 mm 1 mps 721 mmHg 89%
03:00 +7°C° 0 mm 1 mps 721 mmHg 89%
04:00 +7°C° 0 mm 1 mps 721 mmHg 88%
05:00 +7°C° 0 mm 1 mps 721 mmHg 88%
06:00 +6°C° 0 mm 1 mps 722 mmHg 87%
07:00 +8°C° 0 mm 1 mps 722 mmHg 80%
08:00 +10°C° 0 mm 1 mps 723 mmHg 73%
09:00 +11°C° 0 mm 0 mps 724 mmHg 66%
10:00 +13°C° 0 mm 1 mps 724 mmHg 61%
11:00 +14°C° 0 mm 1 mps 724 mmHg 55%
12:00 +15°C° 0 mm 1 mps 724 mmHg 50%
13:00 +16°C° 0 mm 2 mps 724 mmHg 49%
14:00 +16°C° 0 mm 2 mps 724 mmHg 47%
15:00 +16°C° 0 mm 2 mps 724 mmHg 46%
16:00 +15°C° 0 mm 2 mps 724 mmHg 55%
17:00 +13°C° 0 mm 2 mps 724 mmHg 64%
18:00 +12°C° 0 mm 1 mps 723 mmHg 73%
19:00 +11°C° 0 mm 1 mps 724 mmHg 78%
20:00 +10°C° 0 mm 1 mps 724 mmHg 82%
21:00 +10°C° 0 mm 1 mps 725 mmHg 86%
22:00 +9°C° 0 mm 1 mps 725 mmHg 86%
23:00 +9°C° 0 mm 1 mps 725 mmHg 85%

11 March, Thursday

Time Temperature Precipitation Wind Pressure Humidity
00:00 +8°C° 0 mm 2 mps 725 mmHg 85%
01:00 +8°C° 0 mm 2 mps 725 mmHg 83%
02:00 +8°C° 0 mm 2 mps 725 mmHg 82%
03:00 +8°C° 0 mm 2 mps 725 mmHg 81%
04:00 +8°C° 0 mm 2 mps 725 mmHg 79%
05:00 +7°C° 0 mm 2 mps 725 mmHg 77%
06:00 +7°C° 0 mm 2 mps 725 mmHg 76%
07:00 +10°C° 0 mm 2 mps 725 mmHg 66%
08:00 +12°C° 0 mm 3 mps 725 mmHg 57%
09:00 +14°C° 0 mm 3 mps 726 mmHg 47%
10:00 +16°C° 0 mm 3 mps 726 mmHg 42%
11:00 +17°C° 0 mm 3 mps 726 mmHg 37%
12:00 +19°C° 0 mm 4 mps 726 mmHg 32%
13:00 +19°C° 0 mm 4 mps 726 mmHg 33%
14:00 +19°C° 0 mm 4 mps 725 mmHg 33%
15:00 +20°C° 0 mm 4 mps 725 mmHg 33%
16:00 +18°C° 0 mm 3 mps 724 mmHg 40%
17:00 +17°C° 0 mm 3 mps 724 mmHg 47%
18:00 +14°C° 0 mm 3 mps 723 mmHg 54%
19:00 +13°C° 0 mm 3 mps 724 mmHg 57%
20:00 +13°C° 0 mm 3 mps 724 mmHg 60%
21:00 +12°C° 0 mm 3 mps 724 mmHg 62%
22:00 +12°C° 0 mm 3 mps 724 mmHg 63%
23:00 +11°C° 0 mm 3 mps 723 mmHg 64%

12 March, Friday

Time Temperature Precipitation Wind Pressure Humidity
00:00 +11°C° 0 mm 3 mps 723 mmHg 65%
01:00 +11°C° 0 mm 3 mps 723 mmHg 67%
02:00 +10°C° 0 mm 3 mps 722 mmHg 68%
03:00 +10°C° 0 mm 3 mps 722 mmHg 70%
04:00 +10°C° 0 mm 3 mps 722 mmHg 72%
05:00 +9°C° 0 mm 2 mps 722 mmHg 74%
06:00 +9°C° 0 mm 2 mps 722 mmHg 77%
07:00 +12°C° 0 mm 2 mps 722 mmHg 70%
08:00 +14°C° 0 mm 2 mps 723 mmHg 63%
09:00 +16°C° 0 mm 1 mps 723 mmHg 56%
10:00 +18°C° 0 mm 1 mps 723 mmHg 52%
11:00 +19°C° 0 mm 1 mps 723 mmHg 48%
12:00 +20°C° 0 mm 1 mps 723 mmHg 44%
13:00 +19°C° 0 mm 2 mps 722 mmHg 44%
14:00 +19°C° 0 mm 2 mps 722 mmHg 44%
15:00 +20°C° 0 mm 2 mps 721 mmHg 43%
16:00 +18°C° 0 mm 2 mps 721 mmHg 51%
17:00 +16°C° 0 mm 2 mps 720 mmHg 59%
18:00 +14°C° 0 mm 1 mps 720 mmHg 67%
19:00 +13°C° 0 mm 1 mps 720 mmHg 70%
20:00 +13°C° 0 mm 1 mps 720 mmHg 72%
21:00 +12°C° 0 mm 1 mps 720 mmHg 75%
22:00 +12°C° 0 mm 1 mps 720 mmHg 74%
23:00 +12°C° 0 mm 2 mps 720 mmHg 74%
Show more